QPF
0.03 0.04 0.03 0.03 0.03 0.02 0.02 0.01 0.02 0.02 0.02 0.02 0.03 0.03 0.03 0.02 0.02 0.01 0.01 0.02 0.03 0.03 0.02 0.02 0.03 0.05 0.07 0.05 0.04 0.03 0.02 0.02 0.02 0.04 0.07 0.10 0.12 0.11 0.09 0.08 0.08 0.07 0.07 0.06
0.04 0.03 0.02 0.01 0.02 0.02 0.02 0.02 0.02 0.02 0.02 0.03 0.04 0.05 0.05 0.03 0.03 0.02 0.01 0.01 0.03 0.04 0.03 0.02 0.01 0.02 0.04 0.05 0.04 0.04 0.04 0.04 0.03 0.04 0.05 0.08 0.10 0.13 0.14 0.13 0.12 0.10 0.08 0.06
0.03 0.02 0.02 0.02 0.03 0.03 0.02 0.02 0.01 0.01 0.01 0.02 0.04 0.05 0.05 0.03 0.03 0.03 0.03 0.02 0.02 0.04 0.04 0.03 0.01 0.01 0.01 0.02 0.02 0.02 0.02 0.02 0.03 0.04 0.04 0.05 0.07 0.11 0.14 0.14 0.13 0.12 0.11 0.09
0.02 0.01 0.02 0.02 0.03 0.03 0.02 0.01 0.01 0.02 0.02 0.02 0.02 0.04 0.04 0.04 0.03 0.02 0.03 0.04 0.03 0.03 0.04 0.04 0.02 0.01 0.01 0.01 0.01 0.01 0.01 0.03 0.03 0.03 0.04 0.04 0.06 0.09 0.12 0.13 0.13 0.13 0.13 0.12
0.03 0.02 0.02 0.02 0.02 0.03 0.02 0.02 0.02 0.02 0.03 0.04 0.03 0.02 0.02 0.03 0.04 0.03 0.03 0.03 0.04 0.03 0.04 0.05 0.03 0.01 0.01 0.01 0.01 0.01 0.02 0.03 0.03 0.03 0.04 0.05 0.05 0.07 0.08 0.09 0.10 0.11 0.12 0.12
0.03 0.02 0.02 0.02 0.01 0.03 0.04 0.04 0.04 0.04 0.06 0.06 0.02 0.01 0.01 0.02 0.02 0.03 0.03 0.03 0.03 0.04 0.04 0.05 0.06 0.04 0.03 0.02 0.02 0.02 0.02 0.02 0.03 0.03 0.04 0.04 0.04 0.05 0.06 0.07 0.08 0.08 0.09 0.09
0.03 0.03 0.03 0.03 0.02 0.04 0.06 0.07 0.08 0.08 0.08 0.05 0.01 0.01 0.01 0.01 0.01 0.01 0.02 0.02 0.03 0.03 0.03 0.04 0.05 0.06 0.06 0.04 0.03 0.02 0.02 0.03 0.04 0.04 0.04 0.04 0.04 0.04 0.05 0.06 0.08 0.08 0.08 0.07
0.03 0.03 0.02 0.03 0.03 0.04 0.05 0.06 0.06 0.06 0.04 0.02 0.02 0.01 0.01 0.01 0.01 0.01 0.01 0.02 0.02 0.02 0.02 0.02 0.02 0.02 0.04 0.05 0.04 0.03 0.03 0.04 0.04 0.05 0.06 0.06 0.05 0.05 0.05 0.05 0.05 0.06 0.06 0.06
0.02 0.02 0.02 0.02 0.03 0.04 0.05 0.06 0.05 0.04 0.02 0.01 0.01 0.01 0.01 0.01 0.01 0.01 0.01 0.01 0.01 0.01 0.01 0.01 0.01 0.01 0.02 0.03 0.04 0.05 0.05 0.05 0.04 0.04 0.06 0.07 0.08 0.07 0.05 0.04 0.04 0.04 0.05 0.05
0.02 0.02 0.02 0.02 0.03 0.03 0.05 0.06 0.06 0.06 0.03 0.01 0.01 0.00 0.00 0.00 0.00 0.00 0.01 0.01 0.01 0.01 0.01 0.01 0.01 0.01 0.02 0.02 0.03 0.04 0.04 0.05 0.04 0.04 0.05 0.05 0.05 0.06 0.06 0.06 0.07 0.06 0.05 0.04
0.03 0.03 0.02 0.03 0.04 0.03 0.03 0.05 0.06 0.06 0.04 0.02 0.01 0.01 0.00 0.00 0.00 0.00 0.01 0.01 0.01 0.01 0.01 0.02 0.02 0.01 0.01 0.01 0.02 0.02 0.03 0.04 0.04 0.04 0.04 0.03 0.03 0.03 0.04 0.05 0.06 0.07 0.06 0.05
0.03 0.02 0.01 0.02 0.02 0.02 0.03 0.03 0.05 0.05 0.04 0.01 0.01 0.01 0.00 0.00 0.00 0.00 0.01 0.01 0.01 0.01 0.01 0.01 0.02 0.01 0.01 0.01 0.01 0.01 0.01 0.02 0.02 0.02 0.01 0.01 0.02 0.03 0.04 0.05 0.05 0.05 0.04 0.04
0.02 0.02 0.01 0.01 0.02 0.02 0.02 0.02 0.03 0.04 0.03 0.02 0.01 0.01 0.00 0.00 0.00 0.01 0.01 0.01 0.01 0.01 0.00 0.00 0.01 0.01 0.01 0.01 0.01 0.01 0.01 0.01 0.01 0.01 0.01 0.01 0.01 0.02 0.03 0.04 0.06 0.05 0.04 0.04
0.01 0.01 0.01 0.01 0.01 0.01 0.01 0.01 0.02 0.03 0.04 0.02 0.01 0.01 0.01 0.00 0.00 0.01 0.01 0.01 0.01 0.00 0.00 0.00 0.00 0.01 0.00 0.00 0.00 0.00 0.01 0.01 0.01 0.01 0.02 0.02 0.02 0.02 0.02 0.03 0.03 0.04 0.03 0.02
0.01 0.00 0.00 0.00 0.00 0.00 0.00 0.01 0.01 0.01 0.02 0.02 0.01 0.01 0.01 0.01 0.01 0.01 0.01 0.01 0.00 0.00 0.00 0.00 0.00 0.01 0.01 0.01 0.01 0.01 0.01 0.01 0.01 0.01 0.02 0.02 0.02 0.02 0.02 0.02 0.02 0.02 0.02 0.02
0.02 0.01 0.00 0.00 0.00 0.00 0.00 0.00 0.00 0.01 0.01 0.01 0.01 0.01 0.00 0.00 0.00 0.00 0.01 0.01 0.01 0.01 0.01 0.01 0.01 0.01 0.01 0.01 0.01 0.01 0.01 0.01 0.01 0.01 0.01 0.01 0.01 0.01 0.02 0.02 0.02 0.02 0.02 0.02
0.01 0.01 0.01 0.00 0.00 0.00 0.00 0.00 0.00 0.00 0.00 0.01 0.01 0.00 0.00 0.00 0.00 0.00 0.01 0.01 0.01 0.01 0.01 0.01 0.01 0.01 0.01 0.01 0.01 0.01 0.01 0.01 0.01 0.01 0.01 0.01 0.01 0.01 0.01 0.02 0.02 0.02 0.02 0.02
0.01 0.01 0.01 0.00 0.00 0.00 0.00 0.00 0.00 0.00 0.00 0.00 0.00 0.00 0.00 0.00 0.00 0.01 0.01 0.01 0.01 0.01 0.01 0.01 0.02 0.01 0.01 0.01 0.01 0.01 0.01 0.01 0.01 0.01 0.01 0.01 0.01 0.01 0.01 0.02 0.02 0.02 0.02 0.02
0.01 0.01 0.01 0.01 0.00 0.00 0.00 0.00 0.00 0.00 0.00 0.00 0.00 0.00 0.00 0.00 0.00 0.00 0.01 0.01 0.00 0.01 0.01 0.01 0.01 0.01 0.01 0.01 0.00 0.00 0.00 0.00 0.00 0.00 0.01 0.01 0.01 0.01 0.01 0.01 0.01 0.01 0.01 0.01
0.00 0.01 0.01 0.01 0.01 0.00 0.00 0.00 0.00 0.00 0.00 0.00 0.00 0.00 0.00 0.00 0.00 0.00 0.00 0.00 0.00 0.00 0.01 0.01 0.01 0.00 0.00 0.00 0.00 0.00 0.00 0.00 0.00 0.00 0.00 0.00 0.01 0.01 0.01 0.01 0.01 0.01 0.01 0.01
0.01 0.01 0.01 0.01 0.01 0.00 0.00 0.00 0.00 0.00 0.00 0.00 0.00 0.00 0.00 0.00 0.00 0.00 0.00 0.00 0.00 0.00 0.01 0.00 0.00 0.00 0.00 0.00 0.00 0.00 0.00 0.01 0.01 0.01 0.00 0.01 0.01 0.00 0.00 0.00 0.01 0.01 0.01 0.01
0.00 0.00 0.00 0.01 0.01 0.00 0.00 0.00 0.00 0.00 0.00 0.00 0.00 0.00 0.00 0.00 0.00 0.00 0.00 0.00 0.00 0.00 0.00 0.00 0.00 0.00 0.00 0.00 0.00 0.00 0.01 0.01 0.01 0.01 0.00 0.00 0.00 0.00 0.00 0.00 0.01 0.01 0.01 0.01
0.00 0.00 0.00 0.00 0.00 0.00 0.00 0.00 0.00 0.00 0.00 0.00 0.00 0.00 0.00 0.00 0.00 0.00 0.00 0.00 0.00 0.00 0.00 0.00 0.00 0.00 0.00 0.00 0.00 0.01 0.01 0.01 0.01 0.00 0.00 0.00 0.00 0.00 0.00 0.00 0.00 0.00 0.01 0.01
0.00 0.00 0.00 0.00 0.00 0.00 0.00 0.00 0.00 0.00 0.00 0.00 0.00 0.00 0.00 0.00 0.00 0.00 0.00 0.00 0.01 0.00 0.00 0.00 0.00 0.00 0.00 0.00 0.00 0.00 0.00 0.00 0.00 0.00 0.00 0.00 0.00 0.00 0.00 0.00 0.00 0.00 0.00 0.01
0.00 0.00 0.00 0.00 0.00 0.00 0.00 0.00 0.00 0.00 0.00 0.00 0.00 0.00 0.00 0.00 0.00 0.00 0.00 0.00 0.00 0.00 0.00 0.00 0.00 0.00 0.00 0.00 0.00 0.00 0.00 0.00 0.00 0.00 0.00 0.00 0.00 0.00 0.00 0.00 0.00 0.00 0.00 0.00
0.00 0.00 0.00 0.00 0.00 0.00 0.00 0.00 0.00 0.00 0.00 0.00 0.00 0.00 0.00 0.00 0.00 0.00 0.00 0.00 0.00 0.00 0.00 0.00 0.00 0.00 0.00 0.00 0.00 0.00 0.00 0.00 0.00 0.00 0.00 0.00 0.00 0.00 0.00 0.00 0.00 0.00 0.00 0.00
MSLP
1028.78 1029.28 1029.81 1030.36 1030.90 1031.43 1031.95 1032.45 1032.95 1033.45 1033.94 1034.40 1034.79 1035.07 1035.21 1035.17 1034.95 1034.54 1033.97 1033.31 1032.60 1031.92 1031.30 1030.79 1030.39 1030.09 1029.85 1029.63 1029.39 1029.11 1028.79 1028.42 1028.04 1027.68 1027.36 1027.09 1026.87 1026.68 1026.49 1026.26 1025.96 1025.56 1025.08 1024.52
1030.33 1030.73 1031.11 1031.48 1031.84 1032.20 1032.59 1033.03 1033.51 1034.04 1034.59 1035.11 1035.57 1035.91 1036.08 1036.04 1035.81 1035.39 1034.82 1034.15 1033.46 1032.79 1032.19 1031.68 1031.27 1030.94 1030.66 1030.40 1030.12 1029.81 1029.47 1029.10 1028.73 1028.38 1028.07 1027.80 1027.56 1027.34 1027.10 1026.83 1026.49 1026.09 1025.63 1025.12
1031.73 1032.01 1032.24 1032.44 1032.63 1032.85 1033.13 1033.50 1033.95 1034.48 1035.04 1035.59 1036.06 1036.40 1036.57 1036.54 1036.31 1035.91 1035.39 1034.78 1034.16 1033.57 1033.03 1032.57 1032.18 1031.83 1031.51 1031.19 1030.84 1030.47 1030.08 1029.68 1029.30 1028.94 1028.62 1028.34 1028.07 1027.82 1027.54 1027.22 1026.86 1026.45 1026.01 1025.56
1032.96 1033.10 1033.19 1033.23 1033.29 1033.40 1033.61 1033.92 1034.35 1034.85 1035.39 1035.90 1036.33 1036.62 1036.75 1036.69 1036.46 1036.10 1035.65 1035.16 1034.67 1034.21 1033.80 1033.42 1033.07 1032.73 1032.37 1031.97 1031.55 1031.10 1030.64 1030.19 1029.78 1029.40 1029.07 1028.76 1028.48 1028.19 1027.87 1027.52 1027.14 1026.72 1026.29 1025.87
1033.99 1034.00 1033.96 1033.90 1033.87 1033.93 1034.09 1034.38 1034.78 1035.25 1035.72 1036.15 1036.48 1036.67 1036.71 1036.58 1036.34 1036.01 1035.65 1035.29 1034.96 1034.66 1034.40 1034.14 1033.86 1033.54 1033.16 1032.72 1032.22 1031.70 1031.17 1030.67 1030.22 1029.82 1029.47 1029.15 1028.85 1028.53 1028.18 1027.80 1027.39 1026.95 1026.52 1026.11
1034.85 1034.74 1034.60 1034.47 1034.42 1034.47 1034.64 1034.94 1035.32 1035.74 1036.13 1036.44 1036.62 1036.66 1036.55 1036.32 1036.03 1035.71 1035.42 1035.19 1035.01 1034.89 1034.78 1034.66 1034.47 1034.19 1033.82 1033.35 1032.80 1032.22 1031.65 1031.11 1030.63 1030.22 1029.86 1029.54 1029.22 1028.88 1028.51 1028.10 1027.65 1027.19 1026.74 1026.31
1035.54 1035.34 1035.14 1035.00 1034.97 1035.06 1035.29 1035.62 1036.00 1036.37 1036.66 1036.82 1036.82 1036.67 1036.38 1036.01 1035.63 1035.29 1035.04 1034.89 1034.85 1034.88 1034.92 1034.93 1034.84 1034.62 1034.27 1033.80 1033.24 1032.64 1032.05 1031.50 1031.02 1030.61 1030.25 1029.93 1029.60 1029.25 1028.86 1028.41 1027.93 1027.44 1026.94 1026.47
1036.09 1035.83 1035.62 1035.52 1035.55 1035.73 1036.04 1036.42 1036.80 1037.11 1037.30 1037.30 1037.10 1036.74 1036.25 1035.72 1035.22 1034.83 1034.57 1034.48 1034.53 1034.67 1034.83 1034.94 1034.94 1034.79 1034.49 1034.05 1033.51 1032.92 1032.34 1031.81 1031.35 1030.95 1030.61 1030.30 1029.97 1029.60 1029.19 1028.71 1028.19 1027.65 1027.11 1026.58
1036.51 1036.24 1036.07 1036.04 1036.17 1036.45 1036.84 1037.27 1037.66 1037.91 1037.98 1037.82 1037.43 1036.87 1036.19 1035.49 1034.87 1034.39 1034.11 1034.03 1034.13 1034.33 1034.56 1034.75 1034.82 1034.73 1034.48 1034.09 1033.59 1033.05 1032.51 1032.02 1031.59 1031.23 1030.90 1030.59 1030.26 1029.87 1029.43 1028.92 1028.37 1027.78 1027.19 1026.60
1036.83 1036.60 1036.51 1036.57 1036.81 1037.19 1037.64 1038.10 1038.46 1038.65 1038.59 1038.28 1037.73 1036.99 1036.15 1035.31 1034.58 1034.03 1033.71 1033.62 1033.72 1033.94 1034.21 1034.43 1034.54 1034.50 1034.30 1033.96 1033.52 1033.03 1032.55 1032.11 1031.71 1031.37 1031.06 1030.75 1030.40 1029.99 1029.52 1028.98 1028.39 1027.76 1027.13 1026.49
1037.08 1036.94 1036.95 1037.12 1037.45 1037.88 1038.36 1038.80 1039.10 1039.19 1039.02 1038.58 1037.89 1037.03 1036.08 1035.16 1034.37 1033.77 1033.42 1033.31 1033.39 1033.60 1033.86 1034.08 1034.20 1034.18 1034.02 1033.72 1033.33 1032.90 1032.47 1032.07 1031.70 1031.38 1031.06 1030.73 1030.35 1029.91 1029.40 1028.82 1028.20 1027.55 1026.89 1026.23
1037.34 1037.32 1037.43 1037.69 1038.06 1038.49 1038.93 1039.29 1039.48 1039.45 1039.15 1038.60 1037.82 1036.89 1035.91 1034.97 1034.18 1033.59 1033.23 1033.11 1033.17 1033.36 1033.59 1033.78 1033.88 1033.86 1033.70 1033.43 1033.08 1032.69 1032.30 1031.92 1031.56 1031.23 1030.89 1030.52 1030.10 1029.61 1029.06 1028.46 1027.81 1027.15 1026.47 1025.81
1037.68 1037.79 1037.99 1038.29 1038.64 1039.00 1039.32 1039.53 1039.56 1039.37 1038.94 1038.29 1037.46 1036.53 1035.58 1034.70 1033.97 1033.43 1033.12 1033.01 1033.07 1033.22 1033.41 1033.56 1033.62 1033.58 1033.41 1033.15 1032.82 1032.45 1032.06 1031.69 1031.32 1030.95 1030.56 1030.14 1029.67 1029.14 1028.55 1027.91 1027.25 1026.58 1025.91 1025.26
1038.18 1038.41 1038.66 1038.93 1039.19 1039.40 1039.52 1039.51 1039.31 1038.93 1038.37 1037.64 1036.80 1035.91 1035.05 1034.29 1033.68 1033.26 1033.03 1032.96 1033.02 1033.16 1033.30 1033.40 1033.42 1033.34 1033.15 1032.88 1032.55 1032.18 1031.79 1031.40 1031.00 1030.58 1030.14 1029.65 1029.12 1028.54 1027.91 1027.25 1026.58 1025.91 1025.26 1024.62
1038.90 1039.20 1039.45 1039.63 1039.72 1039.70 1039.54 1039.24 1038.79 1038.20 1037.48 1036.69 1035.86 1035.06 1034.33 1033.73 1033.28 1033.00 1032.88 1032.88 1032.96 1033.09 1033.19 1033.25 1033.22 1033.11 1032.90 1032.62 1032.28 1031.91 1031.51 1031.08 1030.64 1030.17 1029.67 1029.12 1028.53 1027.89 1027.23 1026.56 1025.88 1025.22 1024.57 1023.93
1039.84 1040.15 1040.32 1040.34 1040.19 1039.87 1039.40 1038.78 1038.04 1037.23 1036.37 1035.52 1034.72 1034.02 1033.44 1033.02 1032.75 1032.62 1032.61 1032.69 1032.81 1032.93 1033.01 1033.03 1032.98 1032.84 1032.62 1032.34 1032.00 1031.63 1031.22 1030.77 1030.29 1029.77 1029.21 1028.60 1027.96 1027.29 1026.60 1025.90 1025.22 1024.54 1023.88 1023.23
1040.92 1041.17 1041.20 1040.99 1040.56 1039.92 1039.10 1038.16 1037.14 1036.11 1035.12 1034.23 1033.47 1032.87 1032.45 1032.19 1032.09 1032.11 1032.21 1032.35 1032.50 1032.63 1032.70 1032.70 1032.63 1032.49 1032.29 1032.03 1031.71 1031.36 1030.95 1030.50 1029.99 1029.44 1028.83 1028.18 1027.49 1026.78 1026.06 1025.34 1024.63 1023.94 1023.25 1022.57
1041.99 1042.11 1041.94 1041.48 1040.74 1039.77 1038.63 1037.39 1036.13 1034.92 1033.84 1032.92 1032.21 1031.72 1031.42 1031.31 1031.35 1031.48 1031.66 1031.86 1032.04 1032.17 1032.24 1032.25 1032.19 1032.08 1031.92 1031.71 1031.44 1031.12 1030.75 1030.30 1029.79 1029.21 1028.57 1027.88 1027.15 1026.40 1025.65 1024.90 1024.16 1023.42 1022.68 1021.93
1042.85 1042.79 1042.39 1041.66 1040.63 1039.37 1037.96 1036.48 1035.04 1033.72 1032.58 1031.68 1031.03 1030.63 1030.45 1030.46 1030.59 1030.81 1031.05 1031.28 1031.47 1031.61 1031.70 1031.73 1031.72 1031.67 1031.57 1031.43 1031.24 1030.98 1030.65 1030.23 1029.72 1029.13 1028.46 1027.74 1026.97 1026.17 1025.37 1024.58 1023.78 1022.98 1022.17 1021.35
1043.28 1043.00 1042.37 1041.40 1040.13 1038.65 1037.05 1035.43 1033.90 1032.54 1031.41 1030.56 1029.99 1029.68 1029.60 1029.70 1029.91 1030.17 1030.45 1030.70 1030.91 1031.07 1031.19 1031.27 1031.32 1031.34 1031.33 1031.28 1031.18 1030.99 1030.71 1030.32 1029.82 1029.21 1028.51 1027.75 1026.93 1026.08 1025.22 1024.35 1023.48 1022.61 1021.71 1020.79
1043.11 1042.62 1041.77 1040.60 1039.17 1037.57 1035.88 1034.22 1032.70 1031.38 1030.33 1029.57 1029.11 1028.91 1028.93 1029.10 1029.37 1029.67 1029.98 1030.25 1030.49 1030.69 1030.85 1030.99 1031.12 1031.23 1031.32 1031.36 1031.33 1031.21 1030.96 1030.59 1030.09 1029.46 1028.71 1027.89 1027.00 1026.08 1025.15 1024.20 1023.25 1022.28 1021.29 1020.28
1042.23 1041.55 1040.54 1039.25 1037.74 1036.11 1034.45 1032.86 1031.44 1030.26 1029.35 1028.74 1028.42 1028.34 1028.46 1028.71 1029.04 1029.39 1029.73 1030.05 1030.32 1030.57 1030.80 1031.02 1031.23 1031.43 1031.60 1031.71 1031.74 1031.65 1031.43 1031.05 1030.51 1029.83 1029.03 1028.13 1027.17 1026.16 1025.13 1024.09 1023.05 1021.98 1020.90 1019.80
1040.67 1039.83 1038.71 1037.37 1035.88 1034.33 1032.79 1031.37 1030.15 1029.17 1028.47 1028.05 1027.90 1027.96 1028.20 1028.55 1028.95 1029.37 1029.77 1030.15 1030.49 1030.81 1031.12 1031.42 1031.71 1031.98 1032.20 1032.35 1032.40 1032.31 1032.06 1031.63 1031.04 1030.29 1029.41 1028.42 1027.37 1026.27 1025.15 1024.01 1022.87 1021.71 1020.54 1019.35
1038.51 1037.55 1036.40 1035.09 1033.70 1032.31 1030.99 1029.82 1028.86 1028.14 1027.69 1027.49 1027.53 1027.76 1028.13 1028.60 1029.10 1029.61 1030.10 1030.57 1031.00 1031.41 1031.81 1032.18 1032.54 1032.84 1033.09 1033.23 1033.25 1033.11 1032.79 1032.28 1031.60 1030.75 1029.78 1028.70 1027.56 1026.37 1025.16 1023.93 1022.70 1021.46 1020.20 1018.94
1035.93 1034.91 1033.77 1032.56 1031.35 1030.19 1029.14 1028.27 1027.61 1027.19 1027.01 1027.06 1027.31 1027.71 1028.24 1028.83 1029.46 1030.09 1030.69 1031.27 1031.81 1032.32 1032.79 1033.23 1033.62 1033.93 1034.14 1034.23 1034.17 1033.93 1033.50 1032.88 1032.09 1031.15 1030.08 1028.91 1027.69 1026.43 1025.15 1023.85 1022.55 1021.23 1019.90 1018.57
1033.14 1032.10 1031.03 1029.98 1028.99 1028.10 1027.37 1026.83 1026.49 1026.37 1026.47 1026.75 1027.21 1027.80 1028.48 1029.22 1029.98 1030.73 1031.46 1032.15 1032.81 1033.41 1033.95 1034.41 1034.79 1035.07 1035.21 1035.20 1035.01 1034.64 1034.08 1033.34 1032.43 1031.39 1030.24 1029.01 1027.74 1026.43 1025.10 1023.76 1022.40 1021.03 1019.64 1018.24
Thickness
5495 5495 5494 5499 5507 5512 5515 5516 5517 5522 5527 5530 5530 5532 5537 5542 5546 5549 5551 5554 5557 5561 5565 5569 5573 5577 5580 5584 5587 5590 5592 5594 5596 5597 5598 5599 5599 5599 5599 5599 5598 5599 5599 5600
5481 5481 5485 5493 5499 5502 5504 5505 5505 5510 5516 5519 5518 5521 5527 5531 5535 5538 5541 5544 5547 5551 5555 5558 5561 5565 5568 5571 5573 5577 5579 5582 5584 5585 5586 5587 5587 5587 5587 5586 5587 5587 5589 5589
5469 5471 5480 5486 5488 5493 5495 5496 5497 5500 5505 5509 5511 5513 5518 5522 5526 5529 5531 5533 5536 5540 5542 5546 5549 5551 5554 5557 5560 5563 5566 5569 5571 5573 5574 5575 5576 5576 5576 5575 5575 5575 5576 5577
5462 5468 5474 5477 5478 5484 5486 5491 5493 5496 5495 5493 5501 5497 5507 5511 5515 5520 5522 5523 5524 5527 5531 5534 5536 5539 5541 5544 5547 5550 5554 5556 5559 5561 5562 5562 5562 5562 5562 5561 5561 5562 5563 5564
5457 5461 5465 5469 5472 5477 5479 5485 5486 5488 5486 5483 5486 5486 5493 5501 5507 5511 5513 5514 5514 5517 5519 5522 5524 5526 5529 5532 5535 5538 5541 5543 5546 5548 5549 5549 5548 5548 5548 5548 5548 5548 5549 5550
5454 5458 5459 5462 5469 5473 5475 5478 5479 5474 5473 5471 5478 5479 5485 5491 5502 5505 5505 5504 5504 5505 5507 5510 5512 5514 5516 5519 5522 5525 5528 5529 5531 5533 5535 5536 5535 5534 5534 5534 5534 5534 5534 5535
5450 5454 5455 5458 5464 5468 5468 5466 5456 5456 5449 5457 5470 5474 5480 5492 5497 5498 5496 5495 5494 5495 5496 5498 5500 5502 5505 5507 5509 5512 5514 5515 5517 5518 5519 5520 5520 5520 5520 5520 5519 5519 5519 5520
5438 5443 5449 5451 5455 5457 5459 5460 5453 5451 5451 5452 5461 5466 5478 5486 5488 5488 5487 5486 5486 5486 5486 5488 5490 5491 5493 5495 5496 5498 5500 5501 5502 5503 5504 5505 5505 5506 5506 5505 5504 5504 5503 5503
5431 5439 5448 5450 5452 5456 5456 5452 5453 5442 5429 5435 5450 5458 5474 5481 5480 5479 5479 5478 5477 5477 5478 5478 5480 5481 5482 5484 5485 5486 5487 5489 5490 5490 5491 5491 5492 5492 5491 5490 5489 5488 5488 5487
5430 5434 5443 5446 5452 5451 5452 5449 5442 5434 5433 5438 5453 5462 5467 5476 5474 5473 5471 5470 5470 5469 5468 5469 5470 5471 5471 5472 5473 5474 5475 5476 5477 5477 5477 5478 5477 5476 5475 5474 5473 5473 5472 5471
5429 5429 5436 5441 5439 5441 5444 5443 5439 5430 5428 5434 5442 5466 5473 5471 5470 5467 5465 5463 5461 5460 5459 5459 5460 5460 5460 5461 5462 5462 5463 5464 5464 5464 5463 5463 5462 5461 5460 5459 5458 5456 5455 5455
5427 5423 5422 5432 5438 5438 5441 5439 5436 5433 5426 5426 5439 5459 5472 5466 5464 5462 5459 5456 5453 5451 5450 5449 5449 5449 5449 5450 5450 5450 5450 5450 5450 5450 5449 5448 5447 5446 5445 5444 5442 5440 5439 5438
5427 5418 5417 5428 5431 5432 5433 5434 5433 5428 5423 5419 5425 5455 5462 5458 5457 5455 5452 5449 5446 5444 5442 5440 5439 5439 5439 5439 5439 5438 5437 5436 5436 5435 5435 5434 5432 5431 5429 5428 5426 5424 5423 5421
5427 5411 5414 5426 5427 5424 5427 5431 5429 5426 5418 5419 5432 5449 5457 5454 5452 5450 5447 5443 5440 5437 5434 5433 5430 5429 5429 5428 5427 5426 5425 5424 5423 5422 5421 5419 5418 5416 5414 5412 5410 5408 5406 5404
5420 5407 5406 5410 5413 5415 5420 5426 5427 5426 5427 5428 5442 5444 5454 5453 5450 5446 5442 5438 5434 5432 5429 5426 5424 5422 5419 5418 5416 5415 5413 5412 5410 5409 5407 5405 5403 5401 5399 5396 5394 5392 5389 5387
5411 5402 5399 5402 5409 5409 5416 5427 5427 5429 5429 5430 5435 5443 5452 5448 5443 5440 5437 5434 5431 5428 5424 5421 5418 5415 5412 5409 5406 5404 5402 5400 5398 5396 5393 5391 5389 5386 5384 5381 5379 5376 5374 5371
5400 5395 5394 5398 5393 5405 5415 5432 5432 5431 5432 5434 5437 5451 5447 5442 5441 5439 5436 5431 5427 5425 5421 5416 5412 5408 5404 5400 5396 5393 5391 5388 5386 5384 5381 5378 5375 5372 5370 5367 5364 5361 5357 5354
5396 5386 5374 5375 5389 5416 5444 5441 5435 5434 5437 5436 5442 5444 5442 5442 5440 5436 5432 5427 5424 5421 5416 5411 5406 5401 5396 5391 5387 5384 5380 5377 5374 5372 5369 5365 5362 5359 5356 5353 5349 5345 5341 5337
5400 5387 5367 5366 5377 5393 5429 5433 5428 5427 5433 5440 5439 5441 5438 5434 5432 5430 5427 5423 5420 5416 5411 5405 5399 5393 5388 5383 5379 5375 5371 5367 5363 5360 5356 5352 5348 5345 5342 5338 5334 5330 5326 5322
5391 5385 5367 5359 5380 5400 5446 5437 5428 5430 5433 5445 5437 5437 5432 5426 5424 5430 5426 5418 5413 5408 5402 5397 5391 5385 5379 5375 5370 5366 5362 5357 5353 5349 5344 5339 5335 5331 5327 5323 5319 5315 5311 5308
5380 5373 5368 5359 5364 5394 5427 5427 5426 5424 5443 5447 5436 5432 5426 5422 5426 5425 5419 5411 5406 5401 5395 5389 5382 5377 5372 5366 5361 5356 5351 5346 5342 5336 5331 5327 5322 5317 5313 5309 5305 5300 5297 5293
5383 5372 5365 5356 5364 5404 5429 5420 5424 5437 5442 5439 5433 5427 5422 5419 5417 5412 5408 5403 5397 5391 5386 5380 5374 5369 5363 5357 5351 5347 5341 5336 5330 5324 5319 5314 5309 5304 5299 5295 5291 5286 5282 5279
5390 5399 5392 5394 5420 5434 5426 5428 5431 5430 5429 5430 5425 5421 5415 5411 5407 5403 5399 5394 5389 5384 5378 5372 5366 5360 5353 5347 5342 5337 5332 5325 5318 5312 5307 5302 5297 5291 5286 5281 5277 5273 5268 5265
5393 5394 5394 5393 5417 5424 5422 5421 5422 5421 5421 5422 5418 5413 5408 5404 5401 5396 5392 5387 5381 5375 5369 5362 5355 5349 5344 5338 5332 5326 5320 5313 5307 5301 5295 5290 5285 5280 5274 5269 5264 5259 5255 5252
5403 5389 5388 5394 5413 5416 5423 5422 5422 5420 5415 5411 5409 5405 5401 5397 5395 5390 5385 5380 5374 5368 5360 5353 5347 5342 5336 5329 5322 5315 5308 5301 5295 5289 5284 5279 5273 5268 5263 5258 5252 5248 5244 5238
5408 5401 5399 5418 5426 5420 5430 5429 5421 5414 5411 5408 5403 5400 5395 5391 5388 5383 5378 5373 5365 5358 5351 5344 5337 5332 5326 5318 5311 5304 5297 5290 5283 5279 5273 5268 5262 5257 5251 5247 5243 5239 5234 5231